Location: Ermatingen
(47.6706°N, 9.0857°E)
Time: 05:22:57
(UTC+00:00)

Cosmos 1943 - Pass Details

Date: 18 September 2020
Orbit: 833 x 850 km, 71.0° (Epoch: 22 October)

Event Time Altitude Azimuth Distance (km) Brightness Sun altitude
Rises 18:01:40 0° 333° (NNW) 3,400 6.9 -6.3°
Reaches altitude 10° 18:04:07 10° 334° (NNW) 2,464 6.2 -6.7°
Maximum altitude 18:09:48 81° 62° (ENE) 857 3.2 -7.6°
Drops below altitude 10° 18:15:27 10° 150° (SSE) 2,460 5.2 -8.6°
Sets 18:17:54 0° 152° (SSE) 3,394 6.0 -9.0°
